Time,TemperatureF,DewpointF,PressureIn,WindDirection,WindDirectionDegrees,WindSpeedMPH,WindSpeedGustMPH,Humidity,HourlyPrecipIn,Conditions,Clouds,dailyrainin,SoftwareType,DateUTC
2013-09-26 00:01:00,58.6,45.3,29.88,NW,326,9.0,20.0,61,0.00,,,0.00,meteohub,2013-09-26 07:01:00,
2013-09-26 00:06:00,58.6,44.8,29.88,WNW,303,12.0,20.0,60,0.00,,,0.00,meteohub,2013-09-26 07:06:00,
2013-09-26 00:11:00,58.6,44.8,29.88,NNW,334,14.0,20.0,60,0.00,,,0.00,meteohub,2013-09-26 07:11:00,
2013-09-26 00:16:00,58.6,44.8,29.88,WNW,300,9.0,18.0,60,0.00,,,0.00,meteohub,2013-09-26 07:16:00,
2013-09-26 00:21:00,58.5,44.6,29.88,NW,322,10.0,21.0,60,0.00,,,0.00,meteohub,2013-09-26 07:21:00,
2013-09-26 00:26:00,58.5,45.1,29.88,NNW,327,13.0,21.0,61,0.00,,,0.00,meteohub,2013-09-26 07:26:00,
2013-09-26 00:31:00,58.3,45.0,29.88,NW,317,6.0,21.0,61,0.00,,,0.00,meteohub,2013-09-26 07:31:00,
2013-09-26 00:36:00,58.3,45.0,29.88,NNW,347,10.0,17.0,61,0.00,,,0.00,meteohub,2013-09-26 07:36:00,
2013-09-26 00:41:00,58.1,44.8,29.88,NW,321,8.0,17.0,61,0.00,,,0.00,meteohub,2013-09-26 07:41:00,
2013-09-26 00:46:00,58.1,44.8,29.88,NNW,338,7.0,16.0,61,0.00,,,0.00,meteohub,2013-09-26 07:46:00,
2013-09-26 00:51:00,57.9,45.0,29.88,NW,321,4.0,16.0,62,0.00,,,0.00,meteohub,2013-09-26 07:51:00,
2013-09-26 00:56:00,57.9,45.0,29.88,NNW,331,8.0,16.0,62,0.00,,,0.00,meteohub,2013-09-26 07:56:00,
2013-09-26 01:01:00,57.7,44.8,29.88,NW,311,9.0,14.0,62,0.00,,,0.00,meteohub,2013-09-26 08:01:00,
2013-09-26 01:06:00,57.7,44.8,29.88,NNW,330,4.0,16.0,62,0.00,,,0.00,meteohub,2013-09-26 08:06:00,
2013-09-26 01:11:00,57.7,44.8,29.88,NNW,334,9.0,16.0,62,0.00,,,0.00,meteohub,2013-09-26 08:11:00,
2013-09-26 01:16:00,57.6,45.1,29.88,NW,320,10.0,16.0,63,0.00,,,0.00,meteohub,2013-09-26 08:16:00,
2013-09-26 01:21:00,57.6,45.1,29.88,NNW,328,9.0,14.0,63,0.00,,,0.00,meteohub,2013-09-26 08:21:00,
2013-09-26 01:26:00,57.6,44.6,29.88,NW,317,8.0,16.0,62,0.00,,,0.00,meteohub,2013-09-26 08:26:00,
2013-09-26 01:31:00,57.6,44.6,29.88,NNW,328,8.0,16.0,62,0.00,,,0.00,meteohub,2013-09-26 08:31:00,
2013-09-26 01:36:00,57.6,44.6,29.88,NNW,337,6.0,16.0,62,0.00,,,0.00,meteohub,2013-09-26 08:36:00,
2013-09-26 01:41:00,57.4,44.4,29.88,NNW,348,11.0,13.0,62,0.00,,,0.00,meteohub,2013-09-26 08:41:00,
2013-09-26 01:47:00,57.4,44.4,29.88,NNW,345,5.0,13.0,62,0.00,,,0.00,meteohub,2013-09-26 08:47:00,
2013-09-26 01:52:00,57.4,44.4,29.88,NW,310,6.0,13.0,62,0.00,,,0.00,meteohub,2013-09-26 08:52:00,
2013-09-26 01:57:00,57.2,44.2,29.89,NNW,335,7.0,14.0,62,0.00,,,0.00,meteohub,2013-09-26 08:57:00,
2013-09-26 02:02:00,57.2,44.2,29.89,NW,318,12.0,14.0,62,0.00,,,0.00,meteohub,2013-09-26 09:02:00,
2013-09-26 02:07:00,57.0,44.6,29.89,NNW,330,7.0,14.0,63,0.00,,,0.00,meteohub,2013-09-26 09:07:00,
2013-09-26 02:12:00,57.0,44.6,29.89,NNW,332,8.0,14.0,63,0.00,,,0.00,meteohub,2013-09-26 09:12:00,
2013-09-26 02:17:00,56.8,44.4,29.89,NW,326,9.0,14.0,63,0.00,,,0.00,meteohub,2013-09-26 09:17:00,
2013-09-26 02:22:00,56.8,44.4,29.89,NNW,328,6.0,14.0,63,0.00,,,0.00,meteohub,2013-09-26 09:22:00,
2013-09-26 02:27:00,56.8,44.4,29.89,NNW,334,7.0,14.0,63,0.00,,,0.00,meteohub,2013-09-26 09:27:00,
2013-09-26 02:32:00,56.8,44.4,29.89,NW,313,9.0,13.0,63,0.00,,,0.00,meteohub,2013-09-26 09:32:00,
2013-09-26 02:37:00,56.8,44.4,29.89,NW,312,10.0,15.0,63,0.00,,,0.00,meteohub,2013-09-26 09:37:00,
2013-09-26 02:42:00,56.7,44.2,29.89,NW,325,12.0,15.0,63,0.00,,,0.00,meteohub,2013-09-26 09:42:00,
2013-09-26 02:47:00,56.7,44.2,29.89,NNW,328,11.0,15.0,63,0.00,,,0.00,meteohub,2013-09-26 09:47:00,
2013-09-26 02:52:00,56.7,44.2,29.89,NW,324,7.0,15.0,63,0.00,,,0.00,meteohub,2013-09-26 09:52:00,
2013-09-26 02:57:00,56.5,44.1,29.89,NNW,328,9.0,15.0,63,0.00,,,0.00,meteohub,2013-09-26 09:57:00,
2013-09-26 03:02:00,56.5,44.1,29.90,NW,326,11.0,14.0,63,0.00,,,0.00,meteohub,2013-09-26 10:02:00,
2013-09-26 03:07:00,56.3,43.9,29.89,NW,305,9.0,14.0,63,0.00,,,0.00,meteohub,2013-09-26 10:07:00,
2013-09-26 03:12:00,56.3,44.2,29.90,NW,326,10.0,14.0,64,0.00,,,0.00,meteohub,2013-09-26 10:12:00,
2013-09-26 03:17:00,56.1,44.1,29.90,NW,311,8.0,14.0,64,0.00,,,0.00,meteohub,2013-09-26 10:17:00,
2013-09-26 03:22:00,56.1,44.1,29.90,NW,312,10.0,12.0,64,0.00,,,0.00,meteohub,2013-09-26 10:22:00,
2013-09-26 03:27:00,56.1,44.1,29.90,NW,310,5.0,13.0,64,0.00,,,0.00,meteohub,2013-09-26 10:27:00,
2013-09-26 03:32:00,55.9,43.9,29.90,North,359,5.0,13.0,64,0.00,,,0.00,meteohub,2013-09-26 10:32:00,
2013-09-26 03:37:00,55.9,43.9,29.90,NW,320,3.0,13.0,64,0.00,,,0.00,meteohub,2013-09-26 10:37:00,
2013-09-26 03:42:00,55.9,43.9,29.90,NNW,337,6.0,11.0,64,0.00,,,0.00,meteohub,2013-09-26 10:42:00,
2013-09-26 03:48:00,56.1,43.7,29.90,NW,308,5.0,12.0,63,0.00,,,0.00,meteohub,2013-09-26 10:48:00,
2013-09-26 03:53:00,55.9,43.5,29.90,NW,320,4.0,14.0,63,0.00,,,0.00,meteohub,2013-09-26 10:53:00,
2013-09-26 03:58:00,55.9,43.5,29.90,NNW,335,7.0,14.0,63,0.00,,,0.00,meteohub,2013-09-26 10:58:00,
2013-09-26 04:03:00,55.9,43.9,29.90,North,354,5.0,11.0,64,0.00,,,0.00,meteohub,2013-09-26 11:03:00,
2013-09-26 04:08:00,55.8,43.7,29.90,NNW,331,5.0,12.0,64,0.00,,,0.00,meteohub,2013-09-26 11:08:00,
2013-09-26 04:13:00,55.8,43.7,29.90,NNW,337,4.0,12.0,64,0.00,,,0.00,meteohub,2013-09-26 11:13:00,
2013-09-26 04:18:00,55.8,43.7,29.90,NNW,335,7.0,9.0,64,0.00,,,0.00,meteohub,2013-09-26 11:18:00,
2013-09-26 04:23:00,55.8,43.7,29.90,NW,322,5.0,9.0,64,0.00,,,0.00,meteohub,2013-09-26 11:23:00,
2013-09-26 04:28:00,55.6,43.5,29.90,NW,312,6.0,9.0,64,0.00,,,0.00,meteohub,2013-09-26 11:28:00,
2013-09-26 04:33:00,55.6,44.1,29.90,NW,326,6.0,9.0,65,0.00,,,0.00,meteohub,2013-09-26 11:33:00,
2013-09-26 04:38:00,55.6,44.1,29.90,NNW,343,1.0,11.0,65,0.00,,,0.00,meteohub,2013-09-26 11:38:00,
2013-09-26 04:43:00,55.6,43.5,29.90,NW,326,6.0,11.0,64,0.00,,,0.00,meteohub,2013-09-26 11:43:00,
2013-09-26 04:48:00,55.6,43.5,29.90,NNW,327,8.0,11.0,64,0.00,,,0.00,meteohub,2013-09-26 11:48:00,
2013-09-26 04:53:00,55.6,43.5,29.90,WNW,303,9.0,11.0,64,0.00,,,0.00,meteohub,2013-09-26 11:53:00,
2013-09-26 04:58:00,55.6,43.5,29.90,NW,316,6.0,13.0,64,0.00,,,0.00,meteohub,2013-09-26 11:58:00,
2013-09-26 05:03:00,55.6,43.5,29.91,NNW,328,8.0,13.0,64,0.00,,,0.00,meteohub,2013-09-26 12:03:00,
2013-09-26 05:08:00,55.6,43.5,29.90,NNW,338,5.0,13.0,64,0.00,,,0.00,meteohub,2013-09-26 12:08:00,
2013-09-26 05:14:00,55.2,43.7,29.91,NNW,345,5.0,10.0,65,0.00,,,0.00,meteohub,2013-09-26 12:14:00,
2013-09-26 05:19:00,55.2,43.7,29.91,NNW,336,6.0,10.0,65,0.00,,,0.00,meteohub,2013-09-26 12:19:00,
2013-09-26 05:24:00,55.4,43.9,29.91,NNW,345,7.0,11.0,65,0.00,,,0.00,meteohub,2013-09-26 12:24:00,
2013-09-26 05:29:00,55.4,43.9,29.91,NNW,336,5.0,11.0,65,0.00,,,0.00,meteohub,2013-09-26 12:29:00,
2013-09-26 05:34:00,55.4,43.9,29.91,NNW,331,7.0,11.0,65,0.00,,,0.00,meteohub,2013-09-26 12:34:00,
2013-09-26 05:39:00,55.4,43.9,29.91,NNW,337,11.0,11.0,65,0.00,,,0.00,meteohub,2013-09-26 12:39:00,
2013-09-26 05:44:00,55.6,44.1,29.91,NNW,337,7.0,13.0,65,0.00,,,0.00,meteohub,2013-09-26 12:44:00,
2013-09-26 05:49:00,55.6,44.1,29.90,North,354,9.0,13.0,65,0.00,,,0.00,meteohub,2013-09-26 12:49:00,
2013-09-26 05:54:00,55.6,44.1,29.90,NNW,344,4.0,13.0,65,0.00,,,0.00,meteohub,2013-09-26 12:54:00,
2013-09-26 05:59:00,55.4,43.9,29.91,North,350,9.0,12.0,65,0.00,,,0.00,meteohub,2013-09-26 12:59:00,
2013-09-26 06:04:00,55.4,43.9,29.91,NNW,340,5.0,11.0,65,0.00,,,0.00,meteohub,2013-09-26 13:04:00,
2013-09-26 06:09:00,55.4,44.2,29.91,North,4,4.0,10.0,66,0.00,,,0.00,meteohub,2013-09-26 13:09:00,
2013-09-26 06:14:00,55.4,44.2,29.91,North,354,9.0,10.0,66,0.00,,,0.00,meteohub,2013-09-26 13:14:00,
2013-09-26 06:19:00,55.2,44.1,29.91,North,354,6.0,11.0,66,0.00,,,0.00,meteohub,2013-09-26 13:19:00,
2013-09-26 06:24:00,55.2,44.1,29.91,North,349,7.0,11.0,66,0.00,,,0.00,meteohub,2013-09-26 13:24:00,
2013-09-26 06:29:00,55.2,44.1,29.92,North,354,5.0,10.0,66,0.00,,,0.00,meteohub,2013-09-26 13:29:00,
2013-09-26 06:35:00,55.2,44.1,29.92,NNW,343,5.0,11.0,66,0.00,,,0.00,meteohub,2013-09-26 13:35:00,
2013-09-26 06:40:00,55.0,43.9,29.92,NNW,342,9.0,11.0,66,0.00,,,0.00,meteohub,2013-09-26 13:40:00,
2013-09-26 06:45:00,55.2,44.4,29.92,NNW,343,3.0,11.0,67,0.00,,,0.00,meteohub,2013-09-26 13:45:00,
2013-09-26 06:50:00,55.0,44.2,29.92,NW,326,8.0,11.0,67,0.00,,,0.00,meteohub,2013-09-26 13:50:00,
2013-09-26 06:55:00,55.0,44.2,29.92,NNW,337,8.0,10.0,67,0.00,,,0.00,meteohub,2013-09-26 13:55:00,
2013-09-26 07:00:00,55.2,44.1,29.92,NNW,334,7.0,11.0,66,0.00,,,0.00,meteohub,2013-09-26 14:00:00,
2013-09-26 07:05:00,55.2,43.7,29.93,NW,320,6.0,13.0,65,0.00,,,0.00,meteohub,2013-09-26 14:05:00,
2013-09-26 07:10:00,55.2,43.7,29.93,NNW,328,4.0,13.0,65,0.00,,,0.00,meteohub,2013-09-26 14:10:00,
2013-09-26 07:15:00,55.2,43.7,29.93,NNW,338,3.0,13.0,65,0.00,,,0.00,meteohub,2013-09-26 14:15:00,
2013-09-26 07:20:00,55.2,43.7,29.93,NNW,332,3.0,10.0,65,0.00,,,0.00,meteohub,2013-09-26 14:20:00,
2013-09-26 07:25:00,55.2,43.7,29.93,North,350,4.0,9.0,65,0.00,,,0.00,meteohub,2013-09-26 14:25:00,
2013-09-26 07:30:00,55.2,43.7,29.94,NNW,344,4.0,9.0,65,0.00,,,0.00,meteohub,2013-09-26 14:30:00,
2013-09-26 07:35:00,55.6,43.5,29.94,NNW,345,4.0,8.0,64,0.00,,,0.00,meteohub,2013-09-26 14:35:00,
2013-09-26 07:40:00,55.9,43.2,29.94,North,349,6.0,8.0,62,0.00,,,0.00,meteohub,2013-09-26 14:40:00,
2013-09-26 07:45:00,56.1,42.8,29.94,NNW,342,6.0,11.0,61,0.00,,,0.00,meteohub,2013-09-26 14:45:00,
2013-09-26 07:50:00,56.1,42.8,29.94,North,349,3.0,11.0,61,0.00,,,0.00,meteohub,2013-09-26 14:50:00,
2013-09-26 07:56:00,56.1,43.3,29.94,NNE,27,6.0,11.0,62,0.00,,,0.00,meteohub,2013-09-26 14:56:00,
2013-09-26 08:02:00,56.1,43.3,29.94,NNE,21,3.0,8.0,62,0.00,,,0.00,meteohub,2013-09-26 15:02:00,
2013-09-26 08:07:00,56.5,43.7,29.95,NNE,15,5.0,8.0,62,0.00,,,0.00,meteohub,2013-09-26 15:07:00,
2013-09-26 08:12:00,56.7,43.3,29.95,North,350,5.0,8.0,61,0.00,,,0.00,meteohub,2013-09-26 15:12:00,
2013-09-26 08:17:00,56.8,43.5,29.95,North,350,7.0,8.0,61,0.00,,,0.00,meteohub,2013-09-26 15:17:00,
2013-09-26 08:22:00,57.0,43.3,29.95,North,349,8.0,9.0,60,0.00,,,0.00,meteohub,2013-09-26 15:22:00,
2013-09-26 08:27:00,57.0,42.8,29.95,NNW,347,13.0,13.0,59,0.00,,,0.00,meteohub,2013-09-26 15:27:00,
2013-09-26 08:32:00,57.2,43.0,29.96,NNW,346,7.0,14.0,59,0.00,,,0.00,meteohub,2013-09-26 15:32:00,
2013-09-26 08:37:00,57.4,42.8,29.96,NNW,332,7.0,14.0,58,0.00,,,0.00,meteohub,2013-09-26 15:37:00,
2013-09-26 08:42:00,57.6,43.0,29.96,NNW,328,10.0,14.0,58,0.00,,,0.00,meteohub,2013-09-26 15:42:00,
2013-09-26 08:47:00,57.6,43.0,29.96,NNW,347,9.0,14.0,58,0.00,,,0.00,meteohub,2013-09-26 15:47:00,
2013-09-26 08:53:00,57.7,42.6,29.96,NW,314,10.0,14.0,57,0.00,,,0.00,meteohub,2013-09-26 15:53:00,
2013-09-26 08:58:00,57.9,42.3,29.96,NW,320,4.0,14.0,56,0.00,,,0.00,meteohub,2013-09-26 15:58:00,
2013-09-26 09:03:00,58.5,42.4,29.97,NNW,337,15.0,15.0,55,0.00,,,0.00,meteohub,2013-09-26 16:03:00,
2013-09-26 09:08:00,58.6,42.4,29.97,NNW,332,11.0,16.0,55,0.00,,,0.00,meteohub,2013-09-26 16:08:00,
2013-09-26 09:13:00,58.5,42.8,29.98,NNW,345,10.0,16.0,56,0.00,,,0.00,meteohub,2013-09-26 16:13:00,
2013-09-26 09:18:00,58.8,42.6,29.98,WNW,296,13.0,16.0,55,0.00,,,0.00,meteohub,2013-09-26 16:18:00,
2013-09-26 09:23:00,59.2,43.0,29.98,NW,304,11.0,16.0,55,0.00,,,0.00,meteohub,2013-09-26 16:23:00,
2013-09-26 09:28:00,59.4,42.8,29.98,NW,324,7.0,15.0,54,0.00,,,0.00,meteohub,2013-09-26 16:28:00,
2013-09-26 09:33:00,59.7,42.1,29.98,NNW,328,16.0,16.0,52,0.00,,,0.00,meteohub,2013-09-26 16:33:00,
2013-09-26 09:38:00,60.1,42.4,29.98,NW,318,9.0,17.0,52,0.00,,,0.00,meteohub,2013-09-26 16:38:00,
2013-09-26 09:43:00,60.3,41.5,29.98,NNW,331,15.0,17.0,50,0.00,,,0.00,meteohub,2013-09-26 16:43:00,
2013-09-26 09:48:00,60.6,42.4,29.98,NW,326,4.0,20.0,51,0.00,,,0.00,meteohub,2013-09-26 16:48:00,
2013-09-26 09:53:00,61.3,42.1,29.98,NNW,328,8.0,20.0,49,0.00,,,0.00,meteohub,2013-09-26 16:53:00,
2013-09-26 09:58:00,61.3,42.1,29.98,NW,326,8.0,20.0,49,0.00,,,0.00,meteohub,2013-09-26 16:58:00,
2013-09-26 10:03:00,61.9,42.4,29.98,NNW,337,8.0,16.0,49,0.00,,,0.00,meteohub,2013-09-26 17:03:00,
2013-09-26 10:09:00,62.2,41.7,29.98,North,354,10.0,15.0,47,0.00,,,0.00,meteohub,2013-09-26 17:09:00,
2013-09-26 10:14:00,62.4,42.4,29.98,WNW,301,11.0,14.0,48,0.00,,,0.00,meteohub,2013-09-26 17:14:00,
2013-09-26 10:19:00,62.8,42.3,29.98,NW,308,14.0,15.0,47,0.00,,,0.00,meteohub,2013-09-26 17:19:00,
2013-09-26 10:24:00,62.8,41.2,29.98,WNW,297,12.0,18.0,45,0.00,,,0.00,meteohub,2013-09-26 17:24:00,
2013-09-26 10:29:00,63.0,41.9,29.98,West,280,11.0,18.0,46,0.00,,,0.00,meteohub,2013-09-26 17:29:00,
2013-09-26 10:34:00,63.1,40.8,29.98,WNW,301,10.0,17.0,44,0.00,,,0.00,meteohub,2013-09-26 17:34:00,
2013-09-26 10:39:00,63.3,40.5,29.98,NW,311,11.0,17.0,43,0.00,,,0.00,meteohub,2013-09-26 17:39:00,
2013-09-26 10:44:00,63.7,39.6,29.98,NW,308,14.0,17.0,41,0.00,,,0.00,meteohub,2013-09-26 17:44:00,
2013-09-26 10:49:00,64.2,40.1,29.98,NW,321,13.0,17.0,41,0.00,,,0.00,meteohub,2013-09-26 17:49:00,
2013-09-26 10:54:00,64.6,39.7,29.98,WNW,302,7.0,18.0,40,0.00,,,0.00,meteohub,2013-09-26 17:54:00,
2013-09-26 11:00:00,64.9,38.1,29.98,NNW,339,5.0,18.0,37,0.00,,,0.00,meteohub,2013-09-26 18:00:00,
2013-09-26 11:07:00,64.8,37.9,29.97,NW,316,8.0,16.0,37,0.00,,,0.00,meteohub,2013-09-26 18:07:00,
2013-09-26 11:12:00,65.7,38.7,29.97,North,354,8.0,16.0,37,0.00,,,0.00,meteohub,2013-09-26 18:12:00,
2013-09-26 11:17:00,66.0,38.3,29.97,NW,312,8.0,16.0,36,0.00,,,0.00,meteohub,2013-09-26 18:17:00,
2013-09-26 11:22:00,65.8,38.1,29.97,NNW,344,10.0,14.0,36,0.00,,,0.00,meteohub,2013-09-26 18:22:00,
2013-09-26 11:27:00,65.8,38.8,29.97,North,359,7.0,13.0,37,0.00,,,0.00,meteohub,2013-09-26 18:27:00,
2013-09-26 11:32:00,66.2,39.2,29.96,North,349,9.0,14.0,37,0.00,,,0.00,meteohub,2013-09-26 18:32:00,
2013-09-26 11:38:00,66.4,38.7,29.96,WNW,298,7.0,14.0,36,0.00,,,0.00,meteohub,2013-09-26 18:38:00,
2013-09-26 11:43:00,66.4,38.7,29.96,WNW,302,3.0,14.0,36,0.00,,,0.00,meteohub,2013-09-26 18:43:00,
2013-09-26 11:48:00,66.6,38.8,29.96,NNW,342,8.0,13.0,36,0.00,,,0.00,meteohub,2013-09-26 18:48:00,
2013-09-26 11:53:00,66.6,38.8,29.96,WNW,294,10.0,13.0,36,0.00,,,0.00,meteohub,2013-09-26 18:53:00,
2013-09-26 11:58:00,66.7,39.0,29.96,NW,305,9.0,12.0,36,0.00,,,0.00,meteohub,2013-09-26 18:58:00,
2013-09-26 12:03:00,66.7,38.3,29.96,NW,322,5.0,12.0,35,0.00,,,0.00,meteohub,2013-09-26 19:03:00,
2013-09-26 12:08:00,66.9,38.3,29.96,NW,320,8.0,17.0,35,0.00,,,0.00,meteohub,2013-09-26 19:08:00,
2013-09-26 12:13:00,67.3,37.2,29.96,NW,305,7.0,17.0,33,0.00,,,0.00,meteohub,2013-09-26 19:13:00,
2013-09-26 12:18:00,67.5,38.1,29.96,NW,323,3.0,17.0,34,0.00,,,0.00,meteohub,2013-09-26 19:18:00,
2013-09-26 12:23:00,68.5,38.3,29.96,NW,314,5.0,12.0,33,0.00,,,0.00,meteohub,2013-09-26 19:23:00,
2013-09-26 12:28:00,68.4,38.1,29.96,NW,305,6.0,12.0,33,0.00,,,0.00,meteohub,2013-09-26 19:28:00,
2013-09-26 12:33:00,68.2,37.9,29.96,NNW,327,9.0,14.0,33,0.00,,,0.00,meteohub,2013-09-26 19:33:00,
2013-09-26 12:38:00,68.7,38.5,29.96,NNW,328,9.0,14.0,33,0.00,,,0.00,meteohub,2013-09-26 19:38:00,
2013-09-26 12:43:00,69.1,37.9,29.96,NW,311,9.0,13.0,32,0.00,,,0.00,meteohub,2013-09-26 19:43:00,
2013-09-26 12:48:00,68.9,37.8,29.96,WNW,293,13.0,13.0,32,0.00,,,0.00,meteohub,2013-09-26 19:48:00,
2013-09-26 12:54:00,68.9,37.8,29.95,WNW,293,8.0,14.0,32,0.00,,,0.00,meteohub,2013-09-26 19:54:00,
2013-09-26 12:59:00,69.1,38.8,29.95,WNW,302,6.0,14.0,33,0.00,,,0.00,meteohub,2013-09-26 19:59:00,
2013-09-26 13:04:00,69.6,37.6,29.96,NNW,345,6.0,14.0,31,0.00,,,0.00,meteohub,2013-09-26 20:04:00,
2013-09-26 13:09:00,69.6,37.6,29.95,WNW,300,7.0,14.0,31,0.00,,,0.00,meteohub,2013-09-26 20:09:00,
2013-09-26 13:14:00,69.8,37.8,29.95,NNW,336,4.0,14.0,31,0.00,,,0.00,meteohub,2013-09-26 20:14:00,
2013-09-26 13:19:00,70.5,37.6,29.95,North,359,7.0,14.0,30,0.00,,,0.00,meteohub,2013-09-26 20:19:00,
2013-09-26 13:24:00,70.9,37.9,29.95,North,349,4.0,14.0,30,0.00,,,0.00,meteohub,2013-09-26 20:24:00,
2013-09-26 13:29:00,71.1,38.1,29.95,NNW,335,1.0,10.0,30,0.00,,,0.00,meteohub,2013-09-26 20:29:00,
2013-09-26 13:34:00,70.7,37.8,29.95,North,349,6.0,10.0,30,0.00,,,0.00,meteohub,2013-09-26 20:34:00,
2013-09-26 13:39:00,70.9,37.9,29.95,NE,34,7.0,11.0,30,0.00,,,0.00,meteohub,2013-09-26 20:39:00,
2013-09-26 13:44:00,70.9,37.0,29.94,NE,41,3.0,11.0,29,0.00,,,0.00,meteohub,2013-09-26 20:44:00,
2013-09-26 13:49:00,70.9,44.1,29.94,South,175,2.0,10.0,38,0.00,,,0.00,meteohub,2013-09-26 20:49:00,
2013-09-26 13:54:00,69.6,46.8,29.94,SSW,211,7.0,10.0,44,0.00,,,0.00,meteohub,2013-09-26 20:54:00,
2013-09-26 13:59:00,68.7,46.6,29.94,SSW,210,6.0,9.0,45,0.00,,,0.00,meteohub,2013-09-26 20:59:00,
2013-09-26 14:05:00,68.7,43.3,29.94,SSW,205,10.0,10.0,40,0.00,,,0.00,meteohub,2013-09-26 21:05:00,
2013-09-26 14:10:00,69.1,46.2,29.94,South,180,10.0,13.0,44,0.00,,,0.00,meteohub,2013-09-26 21:10:00,
2013-09-26 14:15:00,68.9,45.5,29.94,SSW,204,7.0,13.0,43,0.00,,,0.00,meteohub,2013-09-26 21:15:00,
2013-09-26 14:20:00,68.5,44.6,29.93,SSW,212,8.0,13.0,42,0.00,,,0.00,meteohub,2013-09-26 21:20:00,
2013-09-26 14:25:00,69.3,43.9,29.93,SW,223,9.0,13.0,40,0.00,,,0.00,meteohub,2013-09-26 21:25:00,
2013-09-26 14:30:00,68.7,44.1,29.93,SSW,205,10.0,13.0,41,0.00,,,0.00,meteohub,2013-09-26 21:30:00,
2013-09-26 14:35:00,68.4,45.0,29.93,SSW,198,8.0,14.0,43,0.00,,,0.00,meteohub,2013-09-26 21:35:00,
2013-09-26 14:41:00,67.6,47.3,29.93,SW,224,2.0,14.0,48,0.00,,,0.00,meteohub,2013-09-26 21:41:00,
2013-09-26 14:46:00,68.0,47.7,29.93,WSW,238,12.0,13.0,48,0.00,,,0.00,meteohub,2013-09-26 21:46:00,
2013-09-26 14:52:00,67.1,45.7,29.93,SW,225,8.0,15.0,46,0.00,,,0.00,meteohub,2013-09-26 21:52:00,
2013-09-26 14:57:00,67.5,47.1,29.92,South,191,5.0,15.0,48,0.00,,,0.00,meteohub,2013-09-26 21:57:00,
2013-09-26 15:02:00,67.8,48.6,29.93,WSW,239,11.0,15.0,50,0.00,,,0.00,meteohub,2013-09-26 22:02:00,
2013-09-26 15:07:00,66.9,49.3,29.93,SSW,212,9.0,12.0,53,0.00,,,0.00,meteohub,2013-09-26 22:07:00,
2013-09-26 15:12:00,66.9,48.7,29.93,SW,235,11.0,13.0,52,0.00,,,0.00,meteohub,2013-09-26 22:12:00,
2013-09-26 15:17:00,67.6,48.4,29.92,SW,216,9.0,13.0,50,0.00,,,0.00,meteohub,2013-09-26 22:17:00,
2013-09-26 15:22:00,67.6,49.8,29.92,WSW,239,7.0,13.0,53,0.00,,,0.00,meteohub,2013-09-26 22:22:00,
2013-09-26 15:27:00,68.0,49.6,29.92,WSW,237,6.0,13.0,52,0.00,,,0.00,meteohub,2013-09-26 22:27:00,
2013-09-26 15:32:00,68.2,48.4,29.92,WSW,242,11.0,11.0,49,0.00,,,0.00,meteohub,2013-09-26 22:32:00,
2013-09-26 15:37:00,68.2,48.4,29.92,SW,224,7.0,11.0,49,0.00,,,0.00,meteohub,2013-09-26 22:37:00,
2013-09-26 15:42:00,68.2,48.4,29.92,SW,222,9.0,11.0,49,0.00,,,0.00,meteohub,2013-09-26 22:42:00,
2013-09-26 15:47:00,68.2,48.4,29.92,SSW,199,6.0,11.0,49,0.00,,,0.00,meteohub,2013-09-26 22:47:00,
2013-09-26 15:52:00,67.8,48.6,29.92,SSW,210,7.0,11.0,50,0.00,,,0.00,meteohub,2013-09-26 22:52:00,
2013-09-26 15:57:00,67.6,49.8,29.92,South,187,4.0,11.0,53,0.00,,,0.00,meteohub,2013-09-26 22:57:00,
2013-09-26 16:03:00,68.4,48.4,29.92,SSW,211,7.0,11.0,49,0.00,,,0.00,meteohub,2013-09-26 23:03:00,
2013-09-26 16:08:00,68.4,47.8,29.92,SSW,212,5.0,11.0,48,0.00,,,0.00,meteohub,2013-09-26 23:08:00,
2013-09-26 16:13:00,68.5,47.5,29.92,SSW,197,5.0,9.0,47,0.00,,,0.00,meteohub,2013-09-26 23:13:00,
2013-09-26 16:18:00,68.9,48.9,29.92,SSE,166,5.0,9.0,49,0.00,,,0.00,meteohub,2013-09-26 23:18:00,
2013-09-26 16:23:00,68.7,49.8,29.92,SSW,194,7.0,9.0,51,0.00,,,0.00,meteohub,2013-09-26 23:23:00,
2013-09-26 16:29:00,67.8,50.5,29.92,South,191,6.0,10.0,54,0.00,,,0.00,meteohub,2013-09-26 23:29:00,
2013-09-26 16:34:00,67.5,52.7,29.92,South,183,4.0,10.0,59,0.00,,,0.00,meteohub,2013-09-26 23:34:00,
2013-09-26 16:39:00,67.6,50.9,29.92,South,186,4.0,10.0,55,0.00,,,0.00,meteohub,2013-09-26 23:39:00,
2013-09-26 16:44:00,68.0,53.6,29.92,South,185,3.0,8.0,60,0.00,,,0.00,meteohub,2013-09-26 23:44:00,
2013-09-26 16:49:00,67.8,49.6,29.92,South,182,4.0,8.0,52,0.00,,,0.00,meteohub,2013-09-26 23:49:00,
2013-09-26 16:54:00,68.4,50.0,29.92,South,182,2.0,8.0,52,0.00,,,0.00,meteohub,2013-09-26 23:54:00,
2013-09-26 17:00:00,68.5,48.6,29.92,South,183,5.0,6.0,49,0.00,,,0.00,meteohub,2013-09-27 00:00:00,
2013-09-26 17:05:00,68.5,52.7,29.92,SE,130,5.0,7.0,57,0.00,,,0.00,meteohub,2013-09-27 00:05:00,
2013-09-26 17:10:00,67.6,52.9,29.92,SE,131,1.0,8.0,59,0.00,,,0.00,meteohub,2013-09-27 00:10:00,
2013-09-26 17:15:00,67.5,51.6,29.92,SE,137,3.0,10.0,57,0.00,,,0.00,meteohub,2013-09-27 00:15:00,
2013-09-26 17:20:00,67.5,52.7,29.92,SE,136,5.0,10.0,59,0.00,,,0.00,meteohub,2013-09-27 00:20:00,
2013-09-26 17:25:00,67.3,53.4,29.92,SE,129,4.0,10.0,61,0.00,,,0.00,meteohub,2013-09-27 00:25:00,
2013-09-26 17:30:00,66.9,53.1,29.92,SE,137,2.0,8.0,61,0.00,,,0.00,meteohub,2013-09-27 00:30:00,
2013-09-26 17:36:00,66.6,53.1,29.92,SSE,150,5.0,8.0,62,0.00,,,0.00,meteohub,2013-09-27 00:36:00,
2013-09-26 17:41:00,66.4,52.2,29.92,SE,131,3.0,7.0,60,0.00,,,0.00,meteohub,2013-09-27 00:41:00,
2013-09-26 17:46:00,66.4,51.6,29.92,SE,133,3.0,7.0,59,0.00,,,0.00,meteohub,2013-09-27 00:46:00,
2013-09-26 17:51:00,66.6,51.8,29.92,SE,133,3.0,7.0,59,0.00,,,0.00,meteohub,2013-09-27 00:51:00,
2013-09-26 17:56:00,66.7,51.4,29.92,SE,126,4.0,7.0,58,0.00,,,0.00,meteohub,2013-09-27 00:56:00,
2013-09-26 18:01:00,66.9,51.3,29.93,SE,127,1.0,7.0,57,0.00,,,0.00,meteohub,2013-09-27 01:01:00,
2013-09-26 18:07:00,67.3,50.0,29.93,SE,125,0.0,7.0,54,0.00,,,0.00,meteohub,2013-09-27 01:07:00,
2013-09-26 18:12:00,67.8,49.6,29.93,SE,125,1.0,6.0,52,0.00,,,0.00,meteohub,2013-09-27 01:12:00,
2013-09-26 18:17:00,68.2,49.3,29.93,SE,125,0.0,3.0,51,0.00,,,0.00,meteohub,2013-09-27 01:17:00,
2013-09-26 18:22:00,68.2,51.4,29.93,SE,127,1.0,3.0,55,0.00,,,0.00,meteohub,2013-09-27 01:22:00,
2013-09-26 18:27:00,67.8,50.5,29.94,SE,125,0.0,4.0,54,0.00,,,0.00,meteohub,2013-09-27 01:27:00,
2013-09-26 18:32:00,67.6,50.9,29.94,SE,125,1.0,4.0,55,0.00,,,0.00,meteohub,2013-09-27 01:32:00,
2013-09-26 18:37:00,67.5,51.3,29.94,SE,125,0.0,4.0,56,0.00,,,0.00,meteohub,2013-09-27 01:37:00,
2013-09-26 18:42:00,67.5,51.3,29.94,SE,125,3.0,3.0,56,0.00,,,0.00,meteohub,2013-09-27 01:42:00,
2013-09-26 18:47:00,67.5,46.6,29.94,WNW,298,5.0,5.0,47,0.00,,,0.00,meteohub,2013-09-27 01:47:00,
2013-09-26 18:53:00,67.8,49.6,29.94,West,280,2.0,5.0,52,0.00,,,0.00,meteohub,2013-09-27 01:53:00,
2013-09-26 18:58:00,67.8,46.2,29.95,West,278,1.0,5.0,46,0.00,,,0.00,meteohub,2013-09-27 01:58:00,
2013-09-26 19:03:00,67.6,46.0,29.95,West,277,0.0,5.0,46,0.00,,,0.00,meteohub,2013-09-27 02:03:00,
2013-09-26 19:08:00,67.5,46.6,29.95,West,280,3.0,5.0,47,0.00,,,0.00,meteohub,2013-09-27 02:08:00,
2013-09-26 19:13:00,67.3,46.9,29.95,WNW,283,0.0,5.0,48,0.00,,,0.00,meteohub,2013-09-27 02:13:00,
2013-09-26 19:18:00,67.1,46.8,29.95,WNW,283,2.0,5.0,48,0.00,,,0.00,meteohub,2013-09-27 02:18:00,
2013-09-26 19:23:00,66.9,47.1,29.95,WNW,283,0.0,4.0,49,0.00,,,0.00,meteohub,2013-09-27 02:23:00,
2013-09-26 19:28:00,66.6,46.8,29.96,WNW,284,0.0,4.0,49,0.00,,,0.00,meteohub,2013-09-27 02:28:00,
2013-09-26 19:33:00,66.4,47.1,29.96,WNW,283,0.0,4.0,50,0.00,,,0.00,meteohub,2013-09-27 02:33:00,
2013-09-26 19:38:00,66.0,46.8,29.96,WNW,297,0.0,3.0,50,0.00,,,0.00,meteohub,2013-09-27 02:38:00,
2013-09-26 19:43:00,65.8,47.1,29.96,WNW,296,0.0,4.0,51,0.00,,,0.00,meteohub,2013-09-27 02:43:00,
2013-09-26 19:48:00,65.8,47.1,29.96,WNW,296,0.0,4.0,51,0.00,,,0.00,meteohub,2013-09-27 02:48:00,
2013-09-26 19:53:00,65.5,47.5,29.96,WNW,297,0.0,4.0,52,0.00,,,0.00,meteohub,2013-09-27 02:53:00,
2013-09-26 19:58:00,65.1,47.1,29.97,WNW,296,0.0,2.0,52,0.00,,,0.00,meteohub,2013-09-27 02:58:00,
2013-09-26 20:03:00,64.9,46.9,29.97,WNW,297,0.0,1.0,52,0.00,,,0.00,meteohub,2013-09-27 03:03:00,
2013-09-26 20:08:00,64.8,47.3,29.97,WNW,296,3.0,3.0,53,0.00,,,0.00,meteohub,2013-09-27 03:08:00,
2013-09-26 20:13:00,64.8,47.3,29.97,NW,310,0.0,4.0,53,0.00,,,0.00,meteohub,2013-09-27 03:13:00,
2013-09-26 20:18:00,64.6,47.5,29.97,NW,311,2.0,4.0,54,0.00,,,0.00,meteohub,2013-09-27 03:18:00,
2013-09-26 20:23:00,64.2,47.7,29.98,NW,318,0.0,4.0,55,0.00,,,0.00,meteohub,2013-09-27 03:23:00,
2013-09-26 20:28:00,63.9,47.8,29.98,NW,317,0.0,4.0,56,0.00,,,0.00,meteohub,2013-09-27 03:28:00,
2013-09-26 20:33:00,63.3,47.8,29.98,NW,324,0.0,4.0,57,0.00,,,0.00,meteohub,2013-09-27 03:33:00,
2013-09-26 20:38:00,63.1,48.2,29.98,NNW,347,3.0,4.0,58,0.00,,,0.00,meteohub,2013-09-27 03:38:00,
2013-09-26 20:43:00,62.6,48.0,29.98,NNE,20,4.0,5.0,59,0.00,,,0.00,meteohub,2013-09-27 03:43:00,
2013-09-26 20:48:00,62.2,48.2,29.98,NNE,21,2.0,5.0,60,0.00,,,0.00,meteohub,2013-09-27 03:48:00,
2013-09-26 20:53:00,62.2,48.2,29.99,NNE,21,4.0,5.0,60,0.00,,,0.00,meteohub,2013-09-27 03:53:00,
2013-09-26 20:58:00,62.1,48.4,29.99,NNE,21,1.0,5.0,61,0.00,,,0.00,meteohub,2013-09-27 03:58:00,
2013-09-26 21:01:00,62.1,48.4,29.99,NNE,21,0.0,5.0,61,0.00,,,0.00,meteohub,2013-09-27 04:01:00,
2013-09-26 21:02:00,62.1,48.4,29.99,NNE,20,0.0,5.0,61,0.00,,,0.00,meteohub,2013-09-27 04:02:00,
2013-09-26 21:03:00,62.1,48.9,29.99,NNE,20,0.0,5.0,62,0.00,,,0.00,meteohub,2013-09-27 04:03:00,
2013-09-26 21:04:00,62.1,48.9,29.99,NNE,21,1.0,5.0,62,0.00,,,0.00,meteohub,2013-09-27 04:04:00,
2013-09-26 21:09:00,61.9,48.7,29.99,NNE,21,0.0,5.0,62,0.00,,,0.00,meteohub,2013-09-27 04:09:00,
2013-09-26 21:14:00,61.5,48.4,29.99,NNE,20,0.0,4.0,62,0.00,,,0.00,meteohub,2013-09-27 04:14:00,
2013-09-26 21:19:00,61.3,48.2,29.99,NNE,21,0.0,3.0,62,0.00,,,0.00,meteohub,2013-09-27 04:19:00,
2013-09-26 21:25:00,61.2,48.0,29.99,NNE,20,0.0,3.0,62,0.00,,,0.00,meteohub,2013-09-27 04:25:00,
2013-09-26 21:30:00,61.2,48.0,30.00,NNE,20,0.0,2.0,62,0.00,,,0.00,meteohub,2013-09-27 04:30:00,
2013-09-26 21:35:00,61.2,48.4,30.00,NNE,21,0.0,1.0,63,0.00,,,0.00,meteohub,2013-09-27 04:35:00,
2013-09-26 21:40:00,61.3,48.6,30.00,NNE,21,2.0,2.0,63,0.00,,,0.00,meteohub,2013-09-27 04:40:00,
2013-09-26 21:45:00,61.5,48.4,30.00,NNE,21,0.0,1.0,62,0.00,,,0.00,meteohub,2013-09-27 04:45:00,
2013-09-26 21:50:00,61.5,48.0,30.00,NNE,19,3.0,3.0,61,0.00,,,0.00,meteohub,2013-09-27 04:50:00,
2013-09-26 21:55:00,61.5,48.0,30.01,NNE,14,3.0,6.0,61,0.00,,,0.00,meteohub,2013-09-27 04:55:00,
2013-09-26 22:00:00,61.3,47.8,30.01,NNE,14,3.0,6.0,61,0.00,,,0.00,meteohub,2013-09-27 05:00:00,
2013-09-26 22:05:00,61.2,47.7,30.01,NNE,15,3.0,6.0,61,0.00,,,0.00,meteohub,2013-09-27 05:05:00,
2013-09-26 22:10:00,61.2,48.0,30.01,NNE,15,1.0,6.0,62,0.00,,,0.00,meteohub,2013-09-27 05:10:00,
2013-09-26 22:15:00,61.0,47.8,30.01,NNE,15,2.0,5.0,62,0.00,,,0.00,meteohub,2013-09-27 05:15:00,
2013-09-26 22:20:00,61.0,47.8,30.01,NNE,16,4.0,5.0,62,0.00,,,0.00,meteohub,2013-09-27 05:20:00,
2013-09-26 22:25:00,61.0,48.4,30.01,NNE,30,3.0,4.0,63,0.00,,,0.00,meteohub,2013-09-27 05:25:00,
2013-09-26 22:30:00,61.0,48.4,30.01,NNE,31,6.0,6.0,63,0.00,,,0.00,meteohub,2013-09-27 05:30:00,
2013-09-26 22:36:00,60.8,48.6,30.01,NNE,31,3.0,6.0,64,0.00,,,0.00,meteohub,2013-09-27 05:36:00,
2013-09-26 22:41:00,60.6,48.4,30.01,NNE,31,4.0,6.0,64,0.00,,,0.00,meteohub,2013-09-27 05:41:00,
2013-09-26 22:46:00,60.6,48.4,30.01,NNE,31,0.0,6.0,64,0.00,,,0.00,meteohub,2013-09-27 05:46:00,
2013-09-26 22:51:00,60.4,48.2,30.02,NNE,31,0.0,6.0,64,0.00,,,0.00,meteohub,2013-09-27 05:51:00,
2013-09-26 22:56:00,60.3,48.0,30.02,NNE,31,0.0,4.0,64,0.00,,,0.00,meteohub,2013-09-27 05:56:00,
2013-09-26 23:01:00,60.3,48.0,30.02,NNE,31,2.0,2.0,64,0.00,,,0.00,meteohub,2013-09-27 06:01:00,
2013-09-26 23:06:00,59.9,47.3,30.02,NNE,31,2.0,3.0,63,0.00,,,0.00,meteohub,2013-09-27 06:06:00,
2013-09-26 23:11:00,59.7,47.5,30.02,NE,44,1.0,5.0,64,0.00,,,0.00,meteohub,2013-09-27 06:11:00,
2013-09-26 23:16:00,59.7,47.5,30.02,NE,43,1.0,5.0,64,0.00,,,0.00,meteohub,2013-09-27 06:16:00,
2013-09-26 23:21:00,59.5,47.8,30.02,NE,45,0.0,5.0,65,0.00,,,0.00,meteohub,2013-09-27 06:21:00,
2013-09-26 23:27:00,59.5,47.8,30.02,NE,45,0.0,5.0,65,0.00,,,0.00,meteohub,2013-09-27 06:27:00,
2013-09-26 23:32:00,59.5,47.8,30.02,NE,45,0.0,5.0,65,0.00,,,0.00,meteohub,2013-09-27 06:32:00,
2013-09-26 23:37:00,59.7,48.0,30.02,NE,45,0.0,5.0,65,0.00,,,0.00,meteohub,2013-09-27 06:37:00,
2013-09-26 23:42:00,59.7,48.0,30.02,NE,45,0.0,1.0,65,0.00,,,0.00,meteohub,2013-09-27 06:42:00,
2013-09-26 23:47:00,59.5,47.8,30.02,NE,45,0.0,1.0,65,0.00,,,0.00,meteohub,2013-09-27 06:47:00,
2013-09-26 23:52:00,59.4,47.7,30.03,NE,45,1.0,2.0,65,0.00,,,0.00,meteohub,2013-09-27 06:52:00,
2013-09-26 23:57:00,59.4,47.7,30.03,NE,45,0.0,3.0,65,0.00,,,0.00,meteohub,2013-09-27 06:57:00,